Hourly Weather Cedar City

Today, 13 June, Sunday

Time Temperature Precipitation Wind Pressure Humidity
00:00 +18°C° 0 mm 1 mps 613 mmHg 20%
01:00 +18°C° 0 mm 1 mps 612 mmHg 22%
02:00 +18°C° 0 mm 1 mps 613 mmHg 22%
03:00 +16°C° 0 mm 2 mps 613 mmHg 22%
04:00 +16°C° 0 mm 2 mps 613 mmHg 23%
05:00 +21°C° 0 mm 1 mps 614 mmHg 18%
06:00 +24°C° 0 mm 1 mps 616 mmHg 14%
07:00 +27°C° 0 mm 1 mps 617 mmHg 9%
08:00 +29°C° 0 mm 2 mps 617 mmHg 8%
09:00 +32°C° 0 mm 4 mps 618 mmHg 7%
10:00 +33°C° 0 mm 5 mps 618 mmHg 6%
11:00 +34°C° 0 mm 5 mps 618 mmHg 6%
12:00 +34°C° 0 mm 6 mps 618 mmHg 6%
13:00 +35°C° 0 mm 7 mps 618 mmHg 5%
14:00 +35°C° 0 mm 7 mps 618 mmHg 5%
15:00 +34°C° 0 mm 7 mps 618 mmHg 5%
16:00 +34°C° 0 mm 7 mps 617 mmHg 6%
17:00 +30°C° 0 mm 6 mps 617 mmHg 7%
18:00 +27°C° 0 mm 5 mps 616 mmHg 9%
19:00 +23°C° 0 mm 4 mps 616 mmHg 11%
20:00 +22°C° 0 mm 3 mps 616 mmHg 12%
21:00 +21°C° 0 mm 3 mps 616 mmHg 12%
22:00 +20°C° 0 mm 3 mps 615 mmHg 13%
23:00 +19°C° 0 mm 3 mps 615 mmHg 14%

Tomorrow, 14 June, Monday

Time Temperature Precipitation Wind Pressure Humidity
00:00 +19°C° 0 mm 3 mps 615 mmHg 15%
01:00 +18°C° 0 mm 3 mps 615 mmHg 15%
02:00 +18°C° 0 mm 3 mps 615 mmHg 15%
03:00 +18°C° 0 mm 3 mps 615 mmHg 16%
04:00 +17°C° 0 mm 3 mps 615 mmHg 16%
05:00 +21°C° 0 mm 2 mps 616 mmHg 13%
06:00 +25°C° 0 mm 2 mps 618 mmHg 11%
07:00 +29°C° 0 mm 2 mps 619 mmHg 9%
08:00 +30°C° 0 mm 4 mps 619 mmHg 8%
09:00 +33°C° 0 mm 5 mps 620 mmHg 7%
10:00 +34°C° 0 mm 6 mps 620 mmHg 6%
11:00 +35°C° 0 mm 7 mps 620 mmHg 6%
12:00 +36°C° 0 mm 7 mps 620 mmHg 7%
13:00 +36°C° 0 mm 7 mps 620 mmHg 7%
14:00 +36°C° 0 mm 7 mps 620 mmHg 7%
15:00 +35°C° 0 mm 7 mps 619 mmHg 8%
16:00 +35°C° 0 mm 7 mps 619 mmHg 8%
17:00 +32°C° 0 mm 5 mps 618 mmHg 11%
18:00 +28°C° 0 mm 4 mps 617 mmHg 14%
19:00 +24°C° 0 mm 2 mps 617 mmHg 18%
20:00 +24°C° 0 mm 2 mps 617 mmHg 17%
21:00 +23°C° 0 mm 2 mps 617 mmHg 16%
22:00 +23°C° 0 mm 2 mps 617 mmHg 15%
23:00 +21°C° 0 mm 2 mps 616 mmHg 16%

Day after tomorrow, 15 June, Tuesday

Time Temperature Precipitation Wind Pressure Humidity
00:00 +21°C° 0 mm 2 mps 616 mmHg 18%
01:00 +20°C° 0 mm 2 mps 616 mmHg 19%
02:00 +20°C° 0 mm 2 mps 616 mmHg 19%
03:00 +20°C° 0 mm 2 mps 616 mmHg 20%
04:00 +20°C° 0 mm 2 mps 616 mmHg 21%
05:00 +24°C° 0 mm 2 mps 617 mmHg 18%
06:00 +27°C° 0 mm 1 mps 618 mmHg 15%
07:00 +30°C° 0 mm 1 mps 620 mmHg 13%
08:00 +32°C° 0 mm 2 mps 620 mmHg 12%
09:00 +35°C° 0 mm 3 mps 620 mmHg 11%
10:00 +36°C° 0 mm 4 mps 621 mmHg 10%
11:00 +37°C° 0 mm 5 mps 621 mmHg 10%
12:00 +38°C° 0 mm 6 mps 621 mmHg 9%
13:00 +39°C° 0 mm 6 mps 621 mmHg 9%
14:00 +38°C° 0 mm 6 mps 620 mmHg 9%
15:00 +38°C° 0 mm 6 mps 620 mmHg 9%
16:00 +38°C° 0 mm 6 mps 620 mmHg 9%
17:00 +34°C° 0 mm 5 mps 619 mmHg 11%
18:00 +29°C° 0 mm 3 mps 618 mmHg 14%
19:00 +26°C° 0 mm 2 mps 617 mmHg 16%
20:00 +26°C° 0 mm 2 mps 617 mmHg 16%
21:00 +25°C° 0 mm 2 mps 617 mmHg 16%
22:00 +24°C° 0 mm 2 mps 617 mmHg 16%
23:00 +24°C° 0 mm 2 mps 617 mmHg 17%

16 June, Wednesday

Time Temperature Precipitation Wind Pressure Humidity
00:00 +24°C° 0 mm 2 mps 617 mmHg 18%
01:00 +25°C° 0 mm 2 mps 617 mmHg 18%
02:00 +24°C° 0 mm 2 mps 617 mmHg 19%
03:00 +23°C° 0 mm 2 mps 617 mmHg 20%
04:00 +23°C° 0 mm 2 mps 616 mmHg 21%
05:00 +25°C° 0 mm 1 mps 618 mmHg 18%
06:00 +28°C° 0 mm 1 mps 619 mmHg 16%
07:00 +31°C° 0 mm 1 mps 620 mmHg 13%
08:00 +33°C° 0 mm 1 mps 620 mmHg 12%
09:00 +35°C° 0 mm 1 mps 620 mmHg 10%
10:00 +37°C° 0 mm 2 mps 621 mmHg 9%
11:00 +38°C° 0 mm 3 mps 620 mmHg 9%
12:00 +39°C° 0 mm 3 mps 620 mmHg 8%
13:00 +40°C° 0 mm 4 mps 620 mmHg 8%
14:00 +40°C° 0 mm 4 mps 619 mmHg 8%
15:00 +40°C° 0 mm 4 mps 619 mmHg 8%
16:00 +38°C° 0 mm 4 mps 619 mmHg 9%
17:00 +35°C° 0 mm 4 mps 618 mmHg 11%
18:00 +31°C° 0 mm 3 mps 617 mmHg 13%
19:00 +28°C° 0 mm 3 mps 617 mmHg 16%
20:00 +28°C° 0 mm 3 mps 617 mmHg 17%
21:00 +27°C° 0 mm 2 mps 617 mmHg 19%
22:00 +26°C° 0 mm 2 mps 617 mmHg 20%
23:00 +25°C° 0 mm 2 mps 616 mmHg 20%

17 June, Thursday

Time Temperature Precipitation Wind Pressure Humidity
00:00 +25°C° 0 mm 2 mps 616 mmHg 21%
01:00 +24°C° 0 mm 1 mps 616 mmHg 21%
02:00 +24°C° 0 mm 1 mps 616 mmHg 22%
03:00 +23°C° 0 mm 1 mps 616 mmHg 22%
04:00 +23°C° 0 mm 2 mps 616 mmHg 23%
05:00 +25°C° 0 mm 1 mps 617 mmHg 21%
06:00 +28°C° 0 mm 1 mps 618 mmHg 18%
07:00 +29°C° 0 mm 0 mps 619 mmHg 15%
08:00 +32°C° 0 mm 1 mps 619 mmHg 14%
09:00 +35°C° 0 mm 2 mps 619 mmHg 13%
10:00 +37°C° 0 mm 4 mps 620 mmHg 11%
11:00 +37°C° 0 mm 4 mps 619 mmHg 11%
12:00 +38°C° 0 mm 4 mps 619 mmHg 10%
13:00 +38°C° 0 mm 4 mps 619 mmHg 10%
14:00 +38°C° 0 mm 4 mps 618 mmHg 10%
15:00 +38°C° 0 mm 3 mps 618 mmHg 10%
16:00 +38°C° 0 mm 3 mps 617 mmHg 10%
17:00 +35°C° 0 mm 3 mps 617 mmHg 14%
18:00 +33°C° 0 mm 4 mps 616 mmHg 17%
19:00 +29°C° 0 mm 4 mps 616 mmHg 21%
20:00 +28°C° 0 mm 3 mps 616 mmHg 22%
21:00 +27°C° 0 mm 3 mps 616 mmHg 23%
22:00 +26°C° 0 mm 2 mps 616 mmHg 24%
23:00 +25°C° 0 mm 2 mps 616 mmHg 25%

18 June, Friday

Time Temperature Precipitation Wind Pressure Humidity
00:00 +24°C° 0 mm 2 mps 615 mmHg 26%
01:00 +24°C° 0 mm 1 mps 615 mmHg 27%
02:00 +23°C° 0 mm 1 mps 615 mmHg 28%
03:00 +23°C° 0 mm 1 mps 615 mmHg 29%
04:00 +22°C° 0 mm 1 mps 614 mmHg 30%
05:00 +25°C° 0 mm 1 mps 616 mmHg 26%
06:00 +28°C° 0 mm 1 mps 617 mmHg 23%
07:00 +31°C° 0 mm 1 mps 618 mmHg 19%
08:00 +32°C° 0 mm 2 mps 618 mmHg 17%
09:00 +35°C° 0 mm 2 mps 619 mmHg 15%
10:00 +37°C° 0 mm 3 mps 619 mmHg 13%
11:00 +37°C° 0 mm 3 mps 618 mmHg 13%
12:00 +38°C° 0 mm 4 mps 618 mmHg 12%
13:00 +38°C° 0 mm 4 mps 618 mmHg 12%
14:00 +37°C° 0 mm 4 mps 617 mmHg 12%
15:00 +37°C° 0 mm 3 mps 617 mmHg 13%
16:00 +36°C° 0 mm 3 mps 616 mmHg 14%
17:00 +33°C° 0 mm 3 mps 616 mmHg 19%
18:00 +29°C° 0 mm 3 mps 615 mmHg 25%
19:00 +27°C° 0 mm 4 mps 615 mmHg 30%
20:00 +26°C° 0 mm 3 mps 615 mmHg 31%
21:00 +26°C° 0 mm 3 mps 615 mmHg 31%
22:00 +25°C° 0 mm 2 mps 616 mmHg 31%
23:00 +25°C° 0 mm 2 mps 615 mmHg 32%
Show more

We Need Your Consent

Meteoprog and our Service Providers may store and access personal data such as cookies, device identifiers or other similar technologies on your device and process such data to personalise content and ads, as well as provide social media features and to analyse the traffic.

  • Store and/or access information on your device

    Cookies, device identifiers or other information can be stored or accessed on your device for the purposes indicated above.

  • Personalised ads and content, ad and content measurement, audience insights, and products development

    Ads and content can be personalised based on a profile. More data can be added to better personalise ads and content. Ad and content performance can be measured. Insights about the audience who saw the ads and content can be derived. Such data can be used to develop or improve user’s experience, systems and software.

By clicking ‘I Agree’ you will allow the use of indicated cookies, device identifiers, web beacons or other similar technologies. Your settings can be changed in the browser on your device.

For certain purposes, legitimate interests may be relied on, rather than consent. You can read more about this in our Privacy and Cookie Policy.